LRCT Weather Reports


time (UTC)temp
C
wind
direction
speed
KPH
gust
KPH
rain 1hr
cm
rain 24hr
cm
rain mn
cm
humidity
%
barometer
mb
20260507093357 -17 0.0 0.0 0.00 0.00 0.00
20260507091858 -17 0.0 0.0 0.00 0.00 0.00
20260507090357 -17 0.0 0.0 0.00 0.00 0.00
20260507084857 20 160 4.8 0.0 0.00 0.00 0.00 53 1015.0
20260507083357 20 160 4.8 0.0 0.00 0.00 0.00 53 1015.0
20260507081857 20 160 4.8 0.0 0.00 0.00 0.00 53 1015.0
20260507080357 20 160 4.8 0.0 0.00 0.00 0.00 53 1015.0
20260507074857 18 180 4.8 0.0 0.00 0.00 0.00 56 1015.0
20260507073356 18 180 4.8 0.0 0.00 0.00 0.00 56 1015.0
20260507071857 18 180 4.8 0.0 0.00 0.00 0.00 56 1015.0
20260507070356 18 180 4.8 0.0 0.00 0.00 0.00 56 1015.0
20260507064856 15 180 3.2 0.0 0.00 0.00 0.00 68 1015.0
20260507063357 15 180 3.2 0.0 0.00 0.00 0.00 68 1015.0
20260507061906 15 180 3.2 0.0 0.00 0.00 0.00 68 1015.0
20260507060357 15 180 3.2 0.0 0.00 0.00 0.00 68 1015.0
20260507054856 13 190 3.2 0.0 0.00 0.00 0.00 67 1014.0
20260507053404 13 190 3.2 0.0 0.00 0.00 0.00 67 1014.0
20260507051857 13 190 3.2 0.0 0.00 0.00 0.00 67 1014.0
20260507050356 -17 0.0 0.0 0.00 0.00 0.00
20260507044850 8 350 3.2 0.0 0.00 0.00 0.00 87 1014.0
20260507043356 8 350 3.2 0.0 0.00 0.00 0.00 87 1014.0
20260507041857 8 350 3.2 0.0 0.00 0.00 0.00 87 1014.0
20260507040356 8 350 3.2 0.0 0.00 0.00 0.00 87 1014.0
20260507034853 11 70 3.2 0.0 0.00 0.00 0.00 72 1014.0
20260507033356 11 70 3.2 0.0 0.00 0.00 0.00 72 1014.0
20260507031853 11 70 3.2 0.0 0.00 0.00 0.00 72 1014.0
20260507030356 11 70 3.2 0.0 0.00 0.00 0.00 72 1014.0
20260507024853 7 300 12.9 0.0 0.00 0.00 0.00 100 1013.0
20260507023356 7 300 12.9 0.0 0.00 0.00 0.00 100 1013.0
20260507021857 -17 0.0 0.0 0.00 0.00 0.00
20260507020356 -17 0.0 0.0 0.00 0.00 0.00
20260507014856 8 300 12.9 0.0 0.00 0.00 0.00 94 1013.0
20260507013356 8 300 12.9 0.0 0.00 0.00 0.00 94 1013.0
20260507011856 8 300 12.9 0.0 0.00 0.00 0.00 94 1013.0
20260507010357 8 300 12.9 0.0 0.00 0.00 0.00 94 1013.0
20260507004856 8 300 12.9 0.0 0.00 0.00 0.00 94 1013.0
20260507003357 10 300 12.9 0.0 0.00 0.00 0.00 88 1013.0
20260507001856 10 300 12.9 0.0 0.00 0.00 0.00 88 1013.0
20260507000357 10 300 12.9 0.0 0.00 0.00 0.00 88 1013.0
20260506234856 12 230 11.3 0.0 0.00 0.00 0.00 82 1013.0
20260506233356 12 230 11.3 0.0 0.00 0.00 0.00 82 1013.0
20260506231854 12 230 11.3 0.0 0.00 0.00 0.00 82 1013.0
20260506230356 12 230 11.3 0.0 0.00 0.00 0.00 82 1013.0
20260506224853 13 300 12.9 0.0 0.00 0.00 0.00 67 1013.0
20260506223356 13 300 12.9 0.0 0.00 0.00 0.00 67 1013.0
20260506221856 13 300 12.9 0.0 0.00 0.00 0.00 67 1013.0
20260506220356 -17 0.0 0.0 0.00 0.00 0.00
20260506214909 15 300 12.9 0.0 0.00 0.00 0.00 63 1013.0
20260506213357 15 300 12.9 0.0 0.00 0.00 0.00 63 1013.0
20260506211850 15 300 12.9 0.0 0.00 0.00 0.00 63 1013.0
20260506210356 15 300 12.9 0.0 0.00 0.00 0.00 63 1013.0
20260506204857 17 300 12.9 0.0 0.00 0.00 0.00 56 1012.0
20260506203356 17 300 12.9 0.0 0.00 0.00 0.00 56 1012.0
20260506201850 17 300 12.9 0.0 0.00 0.00 0.00 56 1012.0
20260506200356 17 300 12.9 0.0 0.00 0.00 0.00 56 1012.0
20260506194912 20 300 9.7 0.0 0.00 0.00 0.00 43 1012.0
20260506193420 20 300 9.7 0.0 0.00 0.00 0.00 43 1012.0
20260506191857 20 300 9.7 0.0 0.00 0.00 0.00 43 1012.0
20260506190357 20 300 9.7 0.0 0.00 0.00 0.00 43 1012.0
20260506184859 20 180 11.3 0.0 0.00 0.00 0.00 46 1011.0
20260506183356 20 180 11.3 0.0 0.00 0.00 0.00 46 1011.0
20260506181857 20 180 11.3 0.0 0.00 0.00 0.00 46 1011.0
20260506180357 -17 0.0 0.0 0.00 0.00 0.00
20260506174857 22 230 11.3 0.0 0.00 0.00 0.00 38 1011.0
20260506173356 22 230 11.3 0.0 0.00 0.00 0.00 38 1011.0
20260506171857 22 230 11.3 0.0 0.00 0.00 0.00 38 1011.0
20260506170356 22 230 11.3 0.0 0.00 0.00 0.00 38 1011.0
20260506164856 26 210 11.3 0.0 0.00 0.00 0.00 30 1011.0
20260506163356 26 210 11.3 0.0 0.00 0.00 0.00 30 1011.0
20260506161857 26 210 11.3 0.0 0.00 0.00 0.00 30 1011.0
20260506160356 26 210 11.3 0.0 0.00 0.00 0.00 30 1011.0
20260506154857 27 180 12.9 0.0 0.00 0.00 0.00 23 1011.0
20260506153356 27 180 12.9 0.0 0.00 0.00 0.00 23 1011.0
20260506151856 27 180 12.9 0.0 0.00 0.00 0.00 23 1011.0
20260506150402 27 180 12.9 0.0 0.00 0.00 0.00 23 1011.0
20260506144856 27 190 9.7 0.0 0.00 0.00 0.00 23 1011.0
20260506143408 27 190 9.7 0.0 0.00 0.00 0.00 23 1011.0
20260506141856 27 190 9.7 0.0 0.00 0.00 0.00 23 1011.0
20260506140519 -17 0.0 0.0 0.00 0.00 0.00
20260506134922 27 170 16.1 0.0 0.00 0.00 0.00 26 1012.0
20260506133356 27 170 16.1 0.0 0.00 0.00 0.00 26 1012.0
20260506131853 27 170 16.1 0.0 0.00 0.00 0.00 26 1012.0
20260506130405 27 170 16.1 0.0 0.00 0.00 0.00 26 1012.0
20260506124857 27 160 22.5 0.0 0.00 0.00 0.00 24 1012.0
20260506123356 27 160 22.5 0.0 0.00 0.00 0.00 24 1012.0
20260506121857 27 160 22.5 0.0 0.00 0.00 0.00 24 1012.0
20260506120356 27 160 22.5 0.0 0.00 0.00 0.00 24 1012.0
20260506114856 26 150 16.1 0.0 0.00 0.00 0.00 28 1013.0
20260506113357 26 150 16.1 0.0 0.00 0.00 0.00 28 1013.0
20260506111856 26 150 16.1 0.0 0.00 0.00 0.00 28 1013.0
20260506110356 26 150 16.1 0.0 0.00 0.00 0.00 28 1013.0
20260506104856 23 150 9.7 0.0 0.00 0.00 0.00 34 1014.0
20260506103357 23 150 9.7 0.0 0.00 0.00 0.00 34 1014.0
20260506101857 23 150 9.7 0.0 0.00 0.00 0.00 34 1014.0
20260506100357 23 150 9.7 0.0 0.00 0.00 0.00 34 1014.0
20260506094857 22 220 9.7 0.0 0.00 0.00 0.00 41 1014.0